Regional Weather Roundup
Issued by NWS

Home | Current Version | Previous Version | Graphics & Text | Print | Product List | Glossary On
Versions: 1 2 3 4 5 6 7 8 9 10 11 12 13 14 15 16 17 18 19 20 21 22 23 24 25 26 27
000
ASUS45 KCYS 240710
RWRWY

WYOMING REGIONAL WEATHER ROUNDUP
NATIONAL WEATHER SERVICE CHEYENNE WY
100 AM MDT FRI MAR 24 2017

NOTE:  "FAIR" INDICATES FEW OR NO CLOUDS BELOW 12,000 FEET
WITH NO SIGNIFICANT WEATHER AND/OR OBSTRUCTIONS TO VISIBILITY.

WYZ001-240800-
YELLOWSTONE NATIONAL PARK

CITY           SKY/WX    TMP DP  RH WIND       PRES   REMARKS
LK YELLOWSTONE   N/A     22  19  89 CALM      30.08R
W YELLOWSTONE  NOT AVBL

$$
WYZ002>013-054>058-071-098>099-240800-
NORTHERN WYOMING

CITY           SKY/WX    TMP DP  RH WIND       PRES   REMARKS
JACKSON        FAIR      27  25  93 NW6       30.06R WCI  20
CODY           FAIR      39  32  76 SW6       30.03R WCI  35
GREYBULL       FAIR      36  34  92 CALM      30.00R
WORLAND        FAIR      34  34 100 S8        30.00R WCI  27
SHERIDAN       FAIR      38  32  79 E6        29.98S WCI  33
BUFFALO        FAIR      38  28  67 NW10      29.99R WCI  31
GILLETTE       FAIR      37  35  92 S3        29.99R
HULETT         FAIR      36  34  93 SE7       29.99S WCI  30
NEWCASTLE      PTSUNNY   37  32  81 NW8       29.98R WCI  31

$$
WYZ014>020-022>026-101>103-240800-
CENTRAL WYOMING

CITY           SKY/WX    TMP DP  RH WIND       PRES   REMARKS
BIG PINEY      MOCLDY    30  25  81 NE7       30.05R WCI  23
PINEDALE       FAIR      28  28 100 W6        30.05R WCI  22
DUBOIS         PTSUNNY   30  28  93 NW6       30.04R WCI  24
LANDER         CLOUDY    39  34  82 CALM      30.02R
RIVERTON       CLOUDY    37  35  92 SW5       30.03R WCI  33
CASPER         MOCLDY    35  33  92 NE8       30.02R WCI  29
DOUGLAS        MOCLDY    37  33  85 NW14      29.98R WCI  28

$$
WYZ021-027>030-104>119-240800-
SOUTHERN WYOMING

CITY           SKY/WX    TMP DP  RH WIND       PRES   REMARKS
EVANSTON       CLOUDY    28  24  85 SW5       30.09R WCI  23
KEMMERER         N/A     30  27  86 W10G18    30.07R WCI  21
FORT BRIDGER   CLOUDY    35  34  94 W13G18    30.09R WCI  27
ROCK SPRINGS   CLOUDY    37  30  75 N8        30.03R WCI  31
DIXON            N/A     36  30  80 N8        29.97R WCI  29
RAWLINS        CLOUDY    35  28  75 NE8       29.99R WCI  29
SARATOGA       CLOUDY    34  28  80 N15G21    29.97R WCI  24
LARAMIE        MOCLDY    31  26  82 NW15      29.92R WCI  20
CHEYENNE       CLOUDY    35  30  82 N35G44    29.82F WCI  21
TORRINGTON     CLOUDY    41  36  82 N13G22    29.90R
PINE BLUFFS    CLOUDY    36  36 100 N28       29.84R FOG     WCI  23

$$




USA.gov is the U.S. government's official web portal to all federal, state and local government web resources and services.